This is the latest recevied weather packets stored in our database for station/object DB0MAK-13. If no packets are shown the sender has not sent any weather packets the latest 1 day(s).
| Time | Temp. | Humidity | Pressure | Rain* | Wind** | Luminosity | Snow |
|---|---|---|---|---|---|---|---|
| 1778071445 | 16.67° C | 62% | 1005.2 hPa | 0 mm | - | - | - |
| 1778070845 | 16.11° C | 61% | 1005.2 hPa | 0 mm | - | - | - |
| 1778070245 | 16.67° C | 63% | 1005.2 hPa | 0 mm | - | - | - |
| 1778069645 | 16.67° C | 66% | 1005.4 hPa | 0 mm | - | - | - |
| 1778069045 | 16.11° C | 70% | 1005.4 hPa | 0 mm | - | - | - |
| 1778068445 | 16.11° C | 68% | 1005.6 hPa | 0 mm | - | - | - |
| 1778067845 | 16.11° C | 70% | 1005.6 hPa | 0 mm | - | - | - |
| 1778066045 | 15.56° C | 71% | 1005.7 hPa | 0 mm | - | - | - |
| 1778065867 | 16.11° C | 71% | 1005.6 hPa | 0 mm | - | - | - |
| 1778064845 | 15° C | 73% | 1005.7 hPa | 0 mm | - | - | - |
| 1778064245 | 15° C | 72% | 1005.7 hPa | 0 mm | - | - | - |
| 1778063645 | 15° C | 74% | 1005.9 hPa | 0 mm | - | - | - |
| 1778063045 | 15° C | 75% | 1005.9 hPa | 0 mm | - | - | - |
| 1778061845 | 14.44° C | 77% | 1005.7 hPa | 0 mm | - | - | - |
| 1778060827 | 14.44° C | 75% | 1005.7 hPa | 0 mm | - | - | - |
| 1778060408 | 14.44° C | 75% | 1005.7 hPa | 0 mm | - | - | - |
| 1778057045 | 13.33° C | 80% | 1005.7 hPa | 0 mm | - | - | - |
| 1778055787 | 12.78° C | 82% | 1005.7 hPa | 0 mm | - | - | - |
| 1778055367 | 12.78° C | 81% | 1005.6 hPa | 0 mm | - | - | - |
| 1778053267 | 12.78° C | 81% | 1005.4 hPa | 0 mm | - | - | - |
| 1778049907 | 12.22° C | 85% | 1005.1 hPa | 0 mm | - | - | - |
| 1778049487 | 11.67° C | 87% | 1005.1 hPa | 0 mm | - | - | - |
| 1778048045 | 11.67° C | 88% | 1005.4 hPa | 0 mm | - | - | - |
| 1778046967 | 11.11° C | 88% | 1005.5 hPa | 0 mm | - | - | - |
| 1778045707 | 11.11° C | 88% | 1005.4 hPa | 0 mm | - | - | - |
* Rain latest hour (hover to see other rain measurements)
** Current wind speed in m/s (hover to see current wind gust speed)